Time,TemperatureF,DewpointF,PressureIn,WindDirection,WindDirectionDegrees,WindSpeedMPH,WindSpeedGustMPH,Humidity,HourlyPrecipIn,Conditions,Clouds,dailyrainin,SoftwareType,DateUTC
2013-01-12 00:01:00,35.5,35.0,30.23,SSW,203,0.0,1.0,97,0.00,,,0.00,weatherlink.com 1.10,2013-01-12 08:01:00,
2013-01-12 00:16:00,35.3,35.0,30.23,SSW,203,0.0,0.0,97,0.00,,,0.00,weatherlink.com 1.10,2013-01-12 08:16:00,
2013-01-12 00:31:00,35.1,34.0,30.22,SSW,203,0.0,1.0,97,0.00,,,0.00,weatherlink.com 1.10,2013-01-12 08:31:00,
2013-01-12 00:46:00,35.0,34.0,30.22,SSW,203,0.0,1.0,97,0.00,,,0.00,weatherlink.com 1.10,2013-01-12 08:46:00,
2013-01-12 01:01:00,35.0,34.0,30.22,SSW,203,0.0,0.0,97,0.00,,,0.00,weatherlink.com 1.10,2013-01-12 09:01:00,
2013-01-12 01:18:00,34.9,34.0,30.23,SSW,203,0.0,0.0,98,0.00,,,0.00,weatherlink.com 1.10,2013-01-12 09:18:00,
2013-01-12 01:31:00,34.9,34.0,30.22,SSW,203,0.0,1.0,97,0.00,,,0.00,weatherlink.com 1.10,2013-01-12 09:31:00,
2013-01-12 01:46:00,34.7,34.0,30.23,SSW,203,0.0,0.0,97,0.00,,,0.00,weatherlink.com 1.10,2013-01-12 09:46:00,
2013-01-12 02:01:00,34.4,34.0,30.23,SSW,203,0.0,0.0,97,0.00,,,0.00,weatherlink.com 1.10,2013-01-12 10:01:00,
2013-01-12 02:16:00,34.4,34.0,30.23,SSW,203,0.0,0.0,98,0.00,,,0.00,weatherlink.com 1.10,2013-01-12 10:16:00,
2013-01-12 02:46:00,34.2,34.0,30.24,SSW,203,0.0,0.0,98,0.00,,,0.00,weatherlink.com 1.10,2013-01-12 10:46:00,
2013-01-12 03:01:00,34.1,34.0,30.24,SSW,203,0.0,0.0,98,0.00,,,0.00,weatherlink.com 1.10,2013-01-12 11:01:00,
2013-01-12 03:16:00,34.1,34.0,30.24,SSW,203,0.0,0.0,98,0.00,,,0.00,weatherlink.com 1.10,2013-01-12 11:16:00,
2013-01-12 03:31:00,34.0,34.0,30.24,SSW,203,0.0,0.0,98,0.00,,,0.00,weatherlink.com 1.10,2013-01-12 11:31:00,
2013-01-12 03:46:00,33.8,33.0,30.24,SSW,203,0.0,0.0,98,0.00,,,0.00,weatherlink.com 1.10,2013-01-12 11:46:00,
2013-01-12 04:01:00,33.4,33.0,30.24,SSW,203,0.0,0.0,97,0.00,,,0.00,weatherlink.com 1.10,2013-01-12 12:01:00,
2013-01-12 04:16:00,33.1,32.0,30.23,SSW,203,0.0,0.0,97,0.00,,,0.00,weatherlink.com 1.10,2013-01-12 12:16:00,
2013-01-12 04:31:00,32.9,32.0,30.24,SSW,203,0.0,0.0,98,0.00,,,0.00,weatherlink.com 1.10,2013-01-12 12:31:00,
2013-01-12 04:46:00,32.5,32.0,30.24,SSW,203,0.0,0.0,98,0.00,,,0.00,weatherlink.com 1.10,2013-01-12 12:46:00,
2013-01-12 05:01:00,32.1,31.0,30.23,SSW,203,0.0,0.0,97,0.00,,,0.00,weatherlink.com 1.10,2013-01-12 13:01:00,
2013-01-12 05:16:00,31.7,31.0,30.24,SSW,203,0.0,0.0,97,0.00,,,0.00,weatherlink.com 1.10,2013-01-12 13:16:00,
2013-01-12 05:31:00,31.5,31.0,30.24,SSW,203,0.0,0.0,98,0.00,,,0.00,weatherlink.com 1.10,2013-01-12 13:31:00,
2013-01-12 05:46:00,31.3,31.0,30.25,SSW,203,0.0,0.0,98,0.00,,,0.00,weatherlink.com 1.10,2013-01-12 13:46:00,
2013-01-12 06:02:00,31.0,30.0,30.26,SSW,203,0.0,0.0,97,0.00,,,0.00,weatherlink.com 1.10,2013-01-12 14:02:00,
2013-01-12 06:17:00,30.8,30.0,30.25,SSW,203,0.0,0.0,98,0.00,,,0.00,weatherlink.com 1.10,2013-01-12 14:17:00,
2013-01-12 06:32:00,30.7,30.0,30.26,SSW,203,0.0,0.0,98,0.00,,,0.00,weatherlink.com 1.10,2013-01-12 14:32:00,
2013-01-12 06:47:00,30.4,30.0,30.26,SSW,203,0.0,0.0,98,0.00,,,0.00,weatherlink.com 1.10,2013-01-12 14:47:00,
2013-01-12 07:02:00,30.3,30.0,30.26,SSW,203,0.0,1.0,98,0.00,,,0.00,weatherlink.com 1.10,2013-01-12 15:02:00,
2013-01-12 07:17:00,30.2,30.0,30.27,SSW,203,0.0,0.0,98,0.00,,,0.00,weatherlink.com 1.10,2013-01-12 15:17:00,
2013-01-12 07:33:00,30.0,30.0,30.27,SSW,203,0.0,0.0,98,0.00,,,0.00,weatherlink.com 1.10,2013-01-12 15:33:00,
2013-01-12 07:47:00,29.9,29.0,30.28,SSW,203,0.0,0.0,98,0.00,,,0.00,weatherlink.com 1.10,2013-01-12 15:47:00,
2013-01-12 08:02:00,29.9,29.0,30.28,SSW,203,0.0,0.0,98,0.00,,,0.00,weatherlink.com 1.10,2013-01-12 16:02:00,
2013-01-12 08:17:00,29.8,29.0,30.29,SSW,203,0.0,0.0,98,0.00,,,0.00,weatherlink.com 1.10,2013-01-12 16:17:00,
2013-01-12 08:32:00,29.8,29.0,30.29,SSW,203,0.0,1.0,98,0.00,,,0.00,weatherlink.com 1.10,2013-01-12 16:32:00,
2013-01-12 08:47:00,30.1,30.0,30.29,SSW,203,0.0,0.0,98,0.00,,,0.00,weatherlink.com 1.10,2013-01-12 16:47:00,
2013-01-12 09:02:00,30.3,30.0,30.29,SSW,203,0.0,0.0,98,0.00,,,0.00,weatherlink.com 1.10,2013-01-12 17:02:00,
2013-01-12 09:17:00,30.7,30.0,30.30,SSW,203,0.0,0.0,98,0.00,,,0.00,weatherlink.com 1.10,2013-01-12 17:17:00,
2013-01-12 09:32:00,31.2,31.0,30.29,SSW,203,0.0,0.0,98,0.00,,,0.00,weatherlink.com 1.10,2013-01-12 17:32:00,
2013-01-12 09:47:00,31.8,32.0,30.29,SSW,203,0.0,0.0,99,0.00,,,0.00,weatherlink.com 1.10,2013-01-12 17:47:00,
2013-01-12 10:02:00,32.6,32.0,30.29,SSW,203,0.0,1.0,99,0.00,,,0.00,weatherlink.com 1.10,2013-01-12 18:02:00,
2013-01-12 10:17:00,33.6,33.0,30.29,SSW,203,0.0,0.0,99,0.00,,,0.00,weatherlink.com 1.10,2013-01-12 18:17:00,
2013-01-12 10:32:00,34.5,34.0,30.28,SSW,203,0.0,1.0,99,0.00,,,0.00,weatherlink.com 1.10,2013-01-12 18:32:00,
2013-01-12 10:47:00,35.8,36.0,30.27,SSW,203,1.0,1.0,99,0.00,,,0.00,weatherlink.com 1.10,2013-01-12 18:47:00,
2013-01-12 11:02:00,37.1,37.0,30.27,SSW,203,1.0,1.0,99,0.00,,,0.00,weatherlink.com 1.10,2013-01-12 19:02:00,
2013-01-12 11:17:00,38.2,38.0,30.26,SSW,203,0.0,1.0,99,0.00,,,0.00,weatherlink.com 1.10,2013-01-12 19:17:00,
2013-01-12 11:32:00,39.3,38.0,30.25,SSW,203,0.0,1.0,94,0.00,,,0.00,weatherlink.com 1.10,2013-01-12 19:32:00,
2013-01-12 11:47:00,40.3,38.0,30.25,SE,124,0.0,1.0,91,0.00,,,0.00,weatherlink.com 1.10,2013-01-12 19:47:00,
2013-01-12 12:02:00,41.0,39.0,30.23,SE,124,0.0,1.0,91,0.00,,,0.00,weatherlink.com 1.10,2013-01-12 20:02:00,
2013-01-12 12:17:00,42.1,39.0,30.23,ENE,58,0.0,1.0,88,0.00,,,0.00,weatherlink.com 1.10,2013-01-12 20:17:00,
2013-01-12 12:32:00,43.3,39.0,30.22,NNW,342,2.0,2.0,84,0.00,,,0.00,weatherlink.com 1.10,2013-01-12 20:32:00,
2013-01-12 12:47:00,44.3,39.0,30.21,SSE,160,0.0,2.0,83,0.00,,,0.00,weatherlink.com 1.10,2013-01-12 20:47:00,
2013-01-12 13:02:00,44.9,40.0,30.20,SSE,153,0.0,1.0,82,0.00,,,0.00,weatherlink.com 1.10,2013-01-12 21:02:00,
2013-01-12 13:18:00,45.7,39.0,30.20,NE,36,1.0,2.0,78,0.00,,,0.00,weatherlink.com 1.10,2013-01-12 21:18:00,
2013-01-12 13:33:00,45.3,40.0,30.19,ESE,108,1.0,1.0,83,0.00,,,0.00,weatherlink.com 1.10,2013-01-12 21:33:00,
2013-01-12 13:48:00,44.9,40.0,30.19,ESE,118,0.0,1.0,83,0.00,,,0.00,weatherlink.com 1.10,2013-01-12 21:48:00,
2013-01-12 14:18:00,44.9,39.0,30.18,ESE,120,1.0,2.0,79,0.00,,,0.00,weatherlink.com 1.10,2013-01-12 22:18:00,
2013-01-12 14:33:00,45.9,41.0,30.18,SW,233,0.0,3.0,84,0.00,,,0.00,weatherlink.com 1.10,2013-01-12 22:33:00,
2013-01-12 14:48:00,46.0,41.0,30.18,SE,132,0.0,3.0,82,0.00,,,0.00,weatherlink.com 1.10,2013-01-12 22:48:00,
2013-01-12 15:03:00,44.8,41.0,30.18,SE,133,0.0,0.0,87,0.00,,,0.00,weatherlink.com 1.10,2013-01-12 23:03:00,
2013-01-12 15:18:00,44.3,41.0,30.17,SE,132,0.0,0.0,89,0.00,,,0.00,weatherlink.com 1.10,2013-01-12 23:18:00,
2013-01-12 15:33:00,43.7,41.0,30.17,SE,132,0.0,0.0,90,0.00,,,0.00,weatherlink.com 1.10,2013-01-12 23:33:00,
2013-01-12 15:48:00,43.4,41.0,30.17,NE,44,0.0,1.0,91,0.00,,,0.00,weatherlink.com 1.10,2013-01-12 23:48:00,
2013-01-12 16:03:00,42.9,41.0,30.17,NE,44,0.0,0.0,91,0.00,,,0.00,weatherlink.com 1.10,2013-01-13 00:03:00,
2013-01-12 16:18:00,42.5,40.0,30.17,NE,44,0.0,0.0,91,0.00,,,0.00,weatherlink.com 1.10,2013-01-13 00:18:00,
2013-01-12 16:33:00,42.2,40.0,30.17,NE,44,0.0,0.0,90,0.00,,,0.00,weatherlink.com 1.10,2013-01-13 00:33:00,
2013-01-12 16:48:00,41.8,39.0,30.16,NE,44,0.0,0.0,89,0.00,,,0.00,weatherlink.com 1.10,2013-01-13 00:48:00,
2013-01-12 17:03:00,41.3,38.0,30.17,NE,44,0.0,0.0,89,0.00,,,0.00,weatherlink.com 1.10,2013-01-13 01:03:00,
2013-01-12 17:18:00,40.7,38.0,30.18,NE,44,0.0,0.0,90,0.00,,,0.00,weatherlink.com 1.10,2013-01-13 01:18:00,
2013-01-12 17:33:00,40.2,38.0,30.18,NE,44,0.0,0.0,90,0.00,,,0.00,weatherlink.com 1.10,2013-01-13 01:33:00,
2013-01-12 17:48:00,39.9,38.0,30.18,NE,44,0.0,0.0,91,0.00,,,0.00,weatherlink.com 1.10,2013-01-13 01:48:00,
2013-01-12 18:03:00,39.7,38.0,30.18,NE,44,0.0,0.0,92,0.00,,,0.00,weatherlink.com 1.10,2013-01-13 02:03:00,
2013-01-12 18:18:00,39.5,38.0,30.18,NE,44,0.0,0.0,93,0.00,,,0.00,weatherlink.com 1.10,2013-01-13 02:18:00,
2013-01-12 18:33:00,39.3,38.0,30.18,NE,44,0.0,0.0,93,0.00,,,0.00,weatherlink.com 1.10,2013-01-13 02:33:00,
2013-01-12 18:48:00,39.2,37.0,30.18,NE,44,0.0,0.0,93,0.00,,,0.00,weatherlink.com 1.10,2013-01-13 02:48:00,
2013-01-12 19:03:00,39.1,37.0,30.19,NE,44,0.0,0.0,93,0.00,,,0.00,weatherlink.com 1.10,2013-01-13 03:03:00,
2013-01-12 19:18:00,38.7,37.0,30.19,NE,44,0.0,0.0,93,0.00,,,0.00,weatherlink.com 1.10,2013-01-13 03:18:00,
2013-01-12 19:33:00,38.0,36.0,30.19,NE,44,0.0,0.0,93,0.00,,,0.00,weatherlink.com 1.10,2013-01-13 03:33:00,
2013-01-12 19:48:00,37.5,36.0,30.20,NE,44,0.0,0.0,94,0.00,,,0.00,weatherlink.com 1.10,2013-01-13 03:48:00,
2013-01-12 20:03:00,36.9,35.0,30.19,NE,44,0.0,0.0,94,0.00,,,0.00,weatherlink.com 1.10,2013-01-13 04:03:00,
2013-01-12 20:18:00,36.5,35.0,30.20,NE,44,0.0,0.0,95,0.00,,,0.00,weatherlink.com 1.10,2013-01-13 04:18:00,
2013-01-12 20:33:00,36.1,35.0,30.20,NE,44,0.0,0.0,95,0.00,,,0.00,weatherlink.com 1.10,2013-01-13 04:33:00,
2013-01-12 20:48:00,35.6,34.0,30.20,NE,44,0.0,0.0,95,0.00,,,0.00,weatherlink.com 1.10,2013-01-13 04:48:00,
2013-01-12 21:03:00,35.2,34.0,30.21,NE,44,0.0,0.0,96,0.00,,,0.00,weatherlink.com 1.10,2013-01-13 05:03:00,
2013-01-12 21:18:00,34.8,34.0,30.21,NE,44,0.0,0.0,96,0.00,,,0.00,weatherlink.com 1.10,2013-01-13 05:18:00,
2013-01-12 21:33:00,34.5,34.0,30.21,NE,44,0.0,0.0,96,0.00,,,0.00,weatherlink.com 1.10,2013-01-13 05:33:00,
2013-01-12 21:48:00,34.1,33.0,30.22,NE,44,0.0,0.0,96,0.00,,,0.00,weatherlink.com 1.10,2013-01-13 05:48:00,
2013-01-12 22:03:00,33.7,33.0,30.22,NE,44,0.0,0.0,96,0.00,,,0.00,weatherlink.com 1.10,2013-01-13 06:03:00,
2013-01-12 22:18:00,33.4,32.0,30.23,NE,44,0.0,0.0,96,0.00,,,0.00,weatherlink.com 1.10,2013-01-13 06:18:00,
2013-01-12 22:33:00,33.1,32.0,30.23,NE,44,0.0,0.0,96,0.00,,,0.00,weatherlink.com 1.10,2013-01-13 06:33:00,
2013-01-12 22:48:00,32.8,32.0,30.24,NE,44,0.0,0.0,97,0.00,,,0.00,weatherlink.com 1.10,2013-01-13 06:48:00,
2013-01-12 23:03:00,32.5,32.0,30.24,NE,44,0.0,0.0,97,0.00,,,0.00,weatherlink.com 1.10,2013-01-13 07:03:00,
2013-01-12 23:18:00,32.3,32.0,30.24,NE,44,0.0,0.0,97,0.00,,,0.00,weatherlink.com 1.10,2013-01-13 07:18:00,
2013-01-12 23:33:00,31.8,31.0,30.24,NE,44,0.0,0.0,97,0.00,,,0.00,weatherlink.com 1.10,2013-01-13 07:33:00,
2013-01-12 23:48:00,31.5,31.0,30.24,NE,44,0.0,0.0,97,0.00,,,0.00,weatherlink.com 1.10,2013-01-13 07:48:00,